Location: Bozhami
(42.0161°N, 44.4336°E)
Time: 14:58:23
(UTC+00:00)

Daily predictions for brighter satellites

Satellite Brightness Start Highest point End
(mag) Time Altitude Azimuth Time Altitude Azimuth Time Altitude Azimuth
Cosmos 676 Rocket 4.1 17:06:10 10° NNW 17:11:30 88° WSW 17:16:44 10° SSE
H-2A R/B 2.3 17:09:32 10° NNE 17:13:58 58° ESE 17:18:24 10° S
ATLAS 2AS CENTAUR R/B 2.9 17:07:20 10° NW 17:14:23 77° WSW 17:20:57 10° SSE
Cosmos 1536 Rocket 4.3 17:11:50 10° SSE 17:15:44 34° E 17:19:42 10° NNE
Okean-O 3.9 17:12:02 10° S 17:16:12 41° W 17:20:25 10° NNW
Ariane Rocket 3.6 17:12:26 10° SE 17:17:13 42° ENE 17:22:00 10° N
Cosmos 1703 4.3 17:17:30 10° SSE 17:20:46 27° E 17:24:04 10° NNE
Cosmos 1975 Rocket 4.0 17:17:23 10° SSW 17:21:42 52° W 17:26:01 10° N
Cosmos 1709 Rocket 4.2 17:15:58 10° N 17:22:13 79° W 17:28:31 10° S
SPOT 3 Rocket 4.4 17:23:19 10° SE 17:27:59 35° ENE 17:32:41 10° N
Landsat 7 4.2 17:23:42 10° S 17:28:23 66° WSW 17:33:05 10° NNW
NOSS 2-1 (E) 4.5 17:23:30 10° NW 17:28:27 74° WSW 17:35:33 10° SSE
Terra 3.8 17:27:11 10° E 17:29:58 16° ENE 17:32:45 10° NNE
PSLV R/B 3.9 17:26:40 10° NNE 17:30:51 80° ESE 17:35:01 10° S
SPOT 5 4.2 17:28:42 10° ESE 17:31:54 20° ENE 17:35:05 10° NNE
Cosmos 2315 Rocket 4.4 17:26:21 10° SSW 17:32:37 69° W 17:38:54 10° N
Cosmos 2074 Rocket 4.3 17:29:56 10° N 17:36:00 50° ENE 17:41:56 10° SSE
Cosmos 2082 Rocket 3.2 17:33:25 10° SSE 17:38:02 26° ESE 17:42:39 10° NE
Cosmos 1850 Rocket 4.1 17:34:40 10° NNW 17:39:50 64° ENE 17:44:32 12° SSE
IRAS Rocket 4.4 17:34:30 10° NNE 17:39:58 53° ESE 17:45:21 10° S
Cosmos 1544 Rocket 3.7 17:35:39 10° N 17:39:59 77° W 17:44:20 10° S
Cosmos 1331 Rocket 4.2 17:35:09 10° S 17:40:18 54° ESE 17:45:28 10° NNE
RESURS DK-1 2.4 17:37:33 10° NNW 17:41:41 69° ENE 17:45:11 14° SE
CZ-4B R/B 0.9 17:39:50 10° NNE 17:42:43 80° ESE 17:45:36 10° S
MOS 1 4.5 17:37:26 10° S 17:43:07 78° WSW 17:48:51 10° NNW
Cosmos 1271 Rocket 3.3 17:42:07 10° NNW 17:46:01 57° W 17:49:50 10° S
Cosmos 1455 2.7 17:43:07 10° NNW 17:46:54 61° W 17:50:40 10° S
USA 32 4.3 17:42:09 10° S 17:47:21 74° W 17:52:36 10° N
Spot 2 Rocket 4.4 17:43:41 13° SE 17:47:37 34° ENE 17:52:12 10° N
GEOS 3 Rocket 3.6 17:47:03 14° SE 17:51:32 89° ENE 17:56:41 10° NW
Helios 1A Rocket 4.0 17:52:40 16° ESE 17:55:14 30° ENE 17:58:49 10° N
Lacrosse 5 3.5 17:51:56 10° WNW 17:56:06 26° WSW 18:00:16 10° S
SPOT 1/Viking Rocket 3.8 17:51:16 10° S 17:56:22 70° WSW 18:01:33 10° NNW
Cosmos 2084 Rocket 4.1 17:54:29 10° NNW 17:58:12 39° NE 18:00:57 17° ESE
Cosmos 1656 4.1 17:56:45 10° NNW 18:02:08 58° WSW 18:07:13 12° S
Delta 2 Rocket 3.9 18:00:34 10° WSW 18:03:26 26° S 18:04:22 22° SSE
Meteor 1-21 Rocket 4.3 17:58:58 10° S 18:04:28 63° E 18:10:07 10° NNE
ERS-1 Rocket 3.6 18:02:08 18° SE 18:05:32 42° ENE 18:10:16 10° N
MetOp-B 4.2 18:00:41 12° SSE 18:05:41 82° WSW 18:11:05 10° NNW
Cosmos 1452 Rocket 4.4 18:00:35 10° SW 18:05:42 52° WNW 18:10:51 10° N
Cosmos 1110 Rocket 4.2 18:04:01 10° SSW 18:09:17 77° WNW 18:14:37 10° NNE
Cosmos 2154 Rocket 4.1 18:04:04 10° N 18:10:14 64° E 18:14:56 18° SSE
Cosmos 1302 Rocket 4.2 18:07:33 11° S 18:12:18 49° ESE 18:17:18 10° NNE
Cosmos 1892 4.1 18:16:50 20° ESE 18:17:25 21° E 18:20:17 10° NE
Cosmos 192 4.3 18:13:14 10° S 18:18:04 65° ESE 18:22:56 10° NNE
SL-8 R/B 3.8 18:16:00 10° WNW 18:20:46 65° SSW 18:23:26 25° SE
X-37B 0.2 18:19:37 10° WNW 18:22:24 70° SSW 18:23:03 47° SE
Cosmos 1697 Rocket 2.7 18:17:00 10° NNW 18:22:39 84° WSW 18:26:22 22° SSE
Cosmos 2228 3.0 18:18:46 10° N 18:23:01 81° W 18:25:45 21° S
USA 267 4.2 18:18:03 10° ENE 18:23:11 24° SE 18:25:02 21° SSE
Cosmos 1980 Rocket 2.6 18:17:41 10° NNW 18:23:15 51° ENE 18:26:36 23° SE
Cosmos 968 Rocket 4.0 18:18:36 10° N 18:23:39 47° ENE 18:26:30 24° SE
SL-16 R/B 4.2 18:21:37 10° N 18:25:12 17° NE 18:28:46 10° E
Cosmos 1892 Rocket 3.9 18:23:47 26° SSE 18:25:50 46° E 18:30:01 10° NNE
ATLAS 5 CENTAUR R/B 1.7 18:28:11 33° SE 18:28:43 35° ESE 18:32:18 10° NE
Cosmos 2369 3.8 18:25:41 10° NNW 18:31:24 66° ENE 18:34:39 26° SE
Meteor 2-1 Rocket 4.1 18:30:53 10° N 18:36:26 89° W 18:39:55 24° S
Cosmos 2058 Rocket 3.8 18:33:07 10° N 18:37:18 39° ENE 18:38:48 30° ESE
COSMOS 2406 3.4 18:31:53 10° SSW 18:37:39 74° WNW 18:43:26 10° NNE
Resurs 01 Rocket 3.9 18:34:25 10° SW 18:37:42 20° W 18:41:00 10° NW
CZ-2C R/B 3.6 18:35:15 10° NNE 18:39:47 75° ESE 18:42:21 25° S
Cosmos 1408 2.7 18:40:50 44° ESE 18:41:18 48° E 18:44:39 10° NNE
Cosmos 1833 Rocket 4.1 18:38:40 10° SW 18:43:52 39° WNW 18:49:08 10° N
SJ 16-02 3.8 18:46:15 10° NE 18:47:45 11° NE 18:49:16 10° ENE
Cosmos 1867 3.6 18:46:02 10° NNW 18:51:31 74° NE 18:53:59 33° SE
Cosmos 1825 2.9 18:58:47 35° E 18:58:47 35° E 19:02:09 10° NNE
Cosmos 2322 Rocket 4.0 18:55:18 10° N 18:59:36 22° NE 19:02:53 14° E
Cosmos 1606 Rocket 4.2 18:56:27 10° NNW 19:00:38 48° W 19:02:42 27° SSW
Terra 2.1 19:05:11 33° S 19:07:12 62° W 19:11:56 10° NNW
Cosmos 1869 4.0 19:03:34 10° N 19:07:14 37° ENE 19:07:32 36° E
ARIANE 5 R/B 2.6 19:06:42 44° S 19:08:06 82° WSW 19:12:32 10° NNW
SPOT 5 3.7 19:07:44 23° SSW 19:09:45 36° W 19:13:46 10° NNW
GP-B 3.1 19:06:14 10° N 19:10:40 65° E 19:11:35 50° SE
Cosmos 2341 Rocket 3.9 19:05:08 10° N 19:11:28 88° E 19:14:23 34° S
Cosmos 2278 3.7 19:07:39 10° NNW 19:13:23 75° ENE 19:15:31 40° SE
Meteor 1-11 4.5 19:16:26 23° SSW 19:19:55 65° WNW 19:25:29 10° N
Cosmos 1992 Rocket 3.9 19:17:33 33° SSW 19:19:57 89° ESE 19:25:14 10° NNE
SAR-Lupe-4 3.6 19:17:38 10° NNE 19:21:01 66° ENE 19:21:01 66° ENE
Cosmos 2082 Rocket 3.2 19:16:20 10° SW 19:21:49 47° WNW 19:27:18 10° NNE
USA 276 3.5 19:22:03 10° NW 19:24:48 31° NNE 19:25:06 30° NNE
FALCON 9 DEB 3.6 19:22:23 10° NW 19:25:28 51° NNE 19:25:28 51° NNE
Okean 1-7 Rocket 3.5 19:26:08 58° S 19:26:59 84° E 19:31:31 10° N
Cosmos 1758 Rocket 4.4 19:28:09 35° E 19:28:09 35° E 19:32:02 10° NNE
Cosmos 1486 Rocket 4.0 19:22:49 10° NNW 19:28:04 77° ENE 19:29:27 50° SE
ASTEX 1 3.4 19:25:32 10° N 19:30:33 79° W 19:32:10 43° SSW
Cosmos 1633 3.6 19:31:28 34° NE 19:31:28 34° NE 19:33:54 10° NNE
Gbstr 26 Del rocket 4.0 19:34:11 32° E 19:34:11 32° E 19:37:02 10° ENE
Cosmos 2360 Rocket 3.8 19:29:39 10° N 19:34:19 25° NE 19:37:03 18° E
Cosmos 2181 Rocket 4.0 19:32:19 34° SSW 19:35:12 80° W 19:41:29 10° N
SAR-Lupe-1 4.3 19:34:24 10° N 19:37:57 61° WNW 19:38:06 61° W
Cosmos 1821 Rocket 4.4 19:34:17 10° N 19:40:19 50° ENE 19:42:05 39° ESE
Cosmos-2242 3.7 19:37:29 10° N 19:41:30 40° ENE 19:41:34 40° E
Cosmos 1812 Rocket 3.8 19:37:15 10° N 19:41:37 52° E 19:41:53 52° E
Cosmos 1606 4.1 19:41:32 10° NNE 19:44:37 28° ENE 19:44:37 28° ENE
Cosmos 1602 Rocket 3.3 19:51:22 83° SSE 19:51:32 87° E 19:55:52 10° N
Cosmos 44 4.3 19:57:25 29° E 19:57:25 29° E 20:00:13 10° NE
Cosmos 1354 Rocket 4.1 19:52:36 10° NNW 19:57:53 68° ENE 19:58:50 56° ESE
Nadezhda 3 Rocket 4.0 19:58:38 50° SE 20:00:03 64° E 20:06:09 10° NNE
Spot 4 3.7 20:03:36 66° ESE 20:04:05 73° ENE 20:08:53 10° N
Cosmos 1503 Rocket 3.8 20:01:11 10° NNW 20:06:29 83° WSW 20:07:12 67° S
USA 267 3.2 20:00:07 10° NE 20:06:42 90° WNW 20:12:16 15° SW
Cosmos 1980 Rocket 3.7 20:02:27 10° NW 20:06:50 23° W 20:08:21 21° SW
ALOS 2 3.1 20:06:49 46° E 20:06:59 46° ENE 20:11:12 10° N
SL-16 R/B 2.1 20:04:22 10° NNW 20:10:05 86° WSW 20:11:07 61° SSE
Cosmos 2219 Rocket 4.1 20:05:44 10° N 20:10:05 22° NE 20:13:19 14° E
Cosmos 1777 Rocket 4.2 20:06:35 10° NNW 20:11:49 59° ENE 20:12:41 51° ESE
ATLAS 5 CENTAUR R/B 3.7 20:10:21 10° W 20:13:20 22° NW 20:16:35 10° NNE
ERS-2 4.2 20:12:42 10° NE 20:14:13 19° ENE 20:14:13 19° ENE
Cosmos 2058 3.3 20:17:43 57° NE 20:17:43 57° NE 20:21:20 10° NNE
Cosmos 1953 Rocket 4.3 20:18:46 42° ENE 20:18:46 42° ENE 20:22:31 10° NNE
H-2A R/B 3.7 20:16:16 10° NNE 20:20:00 64° NE 20:20:00 64° NE
Cosmos 1825 Rocket 3.5 20:26:59 77° NNE 20:26:59 77° NNE 20:31:03 10° N
SJ 16-02 1.4 20:22:27 10° NNW 20:26:38 74° WNW 20:26:38 74° WNW
SL-4 R/B 2.9 20:29:23 40° NNW 20:29:23 40° NNW 20:32:34 10° NE
Cosmos 2221 3.4 20:34:39 10° N 20:38:38 40° ENE 20:38:38 40° ENE
USA 234 3.7 20:34:46 19° ESE 20:39:29 60° NE 20:45:54 10° NW
Cosmos 2322 Rocket 2.2 20:38:30 10° NNW 20:44:08 64° WSW 20:44:40 61° SW
Cosmos 1934 Rocket 3.9 20:42:55 10° N 20:49:04 85° E 20:50:15 61° SSE
Cosmos 1842 Rocket 4.4 20:46:59 10° N 20:51:11 42° ENE 20:51:11 42° ENE
Cosmos 1763 Rocket 3.7 21:01:35 54° ESE 21:01:35 54° ESE 21:06:45 10° NNE
Cosmos 2333 Rocket 2.3 20:59:12 10° NNW 21:05:00 74° ENE 21:06:07 57° SE
ADEOS Rocket 3.7 21:06:17 44° SSW 21:08:21 57° W 21:15:58 10° NNW
Cosmos 1339 Rocket 4.5 21:10:12 55° SW 21:11:29 72° W 21:17:38 10° N
Cosmos 1933 4.1 21:10:01 10° N 21:13:22 46° NE 21:13:22 46° NE
Cosmos 1727 Rocket 4.4 21:14:15 45° SE 21:15:35 53° E 21:21:41 10° NNE
Cosmos 990 Rocket 4.2 21:11:37 10° NNW 21:16:44 62° ENE 21:17:26 56° ESE
USA 290 4.4 21:14:13 10° N 21:16:13 25° NNE 21:16:13 25° NNE
Cosmos 2360 Rocket 2.4 21:13:07 10° NNW 21:18:36 52° WSW 21:18:47 52° WSW
COSMOS 2487 4.4 21:20:41 25° N 21:20:41 25° N 21:22:08 10° NNE
Gbstr 26 Del rocket 4.5 21:16:35 17° W 21:19:35 39° NNW 21:24:27 10° NE
Cosmos 2227 Rocket 4.4 21:18:48 12° ESE 21:19:37 12° E 21:21:40 10° ENE
Cosmos 1812 4.1 21:16:31 10° N 21:19:34 32° ENE 21:19:34 32° ENE
CZ-2D R/B 4.2 21:18:22 10° ENE 21:20:55 14° E 21:22:03 13° ESE
Cosmos 1340 Rocket 4.3 21:23:11 28° WNW 21:23:11 28° WNW 21:26:21 10° NNW
Meteor 2-3 Rocket 3.5 21:22:33 69° SSE 21:23:12 81° E 21:28:48 10° NNE
NOSS 3-2 (A) 3.1 21:26:18 64° SE 21:26:41 66° ESE 21:32:46 10° NE
ISS -1.9 21:27:56 31° N 21:27:56 31° N 21:30:20 10° NE
Cosmos 2333 4.1 21:22:22 10° NNW 21:28:08 73° WSW 21:28:44 66° SSW
Cosmos 540 Rocket 3.6 21:30:20 59° ESE 21:30:28 59° ESE 21:35:33 10° NNE
Cosmos 468 Rocket 3.8 21:30:30 77° S 21:30:55 87° ESE 21:36:16 10° NNE
Cosmos 1076 Rocket 3.6 21:32:58 74° NNW 21:32:58 74° NNW 21:37:00 10° N
CENTAUR R/B 2.3 21:35:23 62° S 21:36:15 72° ESE 21:43:02 10° NE
SL-27 R/B 4.3 21:40:00 25° NNW 21:40:00 25° NNW 21:41:58 10° N
Cosmos 1605 Rocket 4.2 21:36:15 10° NNW 21:42:31 60° W 21:43:48 51° SW
Cosmos 2237 Rocket 3.8 21:40:04 10° N 21:45:02 30° NE 21:49:39 11° ESE
Cosmos 1862 4.3 21:45:48 40° ENE 21:45:48 40° ENE 21:49:03 10° NNE
Cosmos 1782 3.2 21:43:34 10° N 21:46:50 57° NNW 21:46:50 57° NNW
Cosmos 2297 Rocket 3.1 21:47:31 32° ESE 21:48:16 34° ESE 21:53:16 10° NE
ERS-2 4.1 21:46:11 10° NNW 21:48:35 20° WNW 21:48:35 20° WNW
COSMOS 2428 2.6 21:45:38 10° NNW 21:51:23 86° ENE 21:52:40 56° SSE
SL-16 R/B 4.4 21:51:42 10° W 21:52:57 11° W 21:52:57 11° W
Cosmos 2151 3.3 21:54:31 59° WNW 21:54:31 59° WNW 21:58:31 10° N
Cosmos 2219 Rocket 2.2 21:48:53 10° NNW 21:54:30 63° WSW 21:55:00 60° SW
Cosmos 2322 3.7 21:57:51 10° NNW 22:03:25 57° WSW 22:03:51 55° SW
Cosmos 1898 Rocket 3.3 22:01:11 10° NNW 22:06:21 73° WSW 22:06:48 68° SSW
SL-4 R/B 4.5 22:06:37 10° NW 22:09:16 19° N 22:12:03 10° NE
Cosmos 1151 Rocket 3.7 22:06:37 10° N 22:10:52 47° ENE 22:11:36 43° ESE
COSMOS 2455 3.6 22:05:19 10° NNW 22:11:10 50° NE 22:16:26 13° SE
Cosmos 1937 Rocket 3.4 22:06:25 10° NNW 22:11:41 89° ENE 22:12:39 61° SSE
NOSS 0 Rocket 4.0 22:07:21 10° NNW 22:13:33 77° ENE 22:16:22 34° SE
NOSS 3-2 (C) 3.1 22:14:29 58° SSW 22:15:37 79° ESE 22:21:50 10° NE
SL-24 R/B 4.5 22:14:37 57° S 22:15:45 84° WSW 22:20:45 10° NNW
Cosmos 1802 Rocket 4.1 22:11:20 10° N 22:17:36 73° E 22:20:08 38° SSE
Cosmos 2285 Rocket 4.5 22:19:00 37° WSW 22:21:14 52° WNW 22:27:31 10° N
SL-24 DEB 4.0 22:21:20 73° S 22:21:46 86° W 22:26:24 10° N
USA 234 3.5 22:22:03 42° SW 22:22:35 43° SW 22:28:48 10° WNW
Cosmos 1328 Rocket 4.4 22:22:30 10° N 22:26:43 43° ENE 22:28:01 33° ESE
Cosmos 1184 Rocket 4.2 22:23:53 10° N 22:25:44 34° N 22:25:44 34° N
Cosmos 2061 Rocket 4.3 22:22:48 10° N 22:29:12 65° E 22:32:33 29° SSE
Cosmos 1814 Rocket 4.0 22:29:11 55° SSE 22:30:13 72° ESE 22:35:20 10° NNE
NPP 4.2 22:25:01 10° NNE 22:30:15 50° E 22:32:00 36° SSE
USA 238 DEB 3.5 22:31:21 42° SW 22:33:44 82° NW 22:40:34 10° NE
USA 238 3.5 22:31:30 42° SW 22:33:53 83° NW 22:40:43 10° NE
Meteor 1-27 Rocket 4.4 22:32:16 10° N 22:37:41 49° ENE 22:41:03 22° SE
Cosmos 1340 2.7 22:37:28 10° NNW 22:40:50 65° WNW 22:40:50 65° WNW
MOZ.5/SAFIR/RUBIN 5/SL-8 3.9 22:41:58 52° WSW 22:42:23 54° W 22:47:02 10° NNW
Meteor 2-6 Rocket 4.3 22:38:53 10° NNW 22:44:40 61° W 22:46:17 44° SSW
Cosmos 220 Rocket 3.9 22:41:11 10° NNW 22:45:37 75° WSW 22:46:11 64° SSW
Resurs 1-4 Rocket 2.1 22:40:56 10° NNE 22:46:18 85° ESE 22:48:00 45° S
Cosmos 1766 Rocket 3.4 22:46:34 65° SSW 22:47:10 82° W 22:51:31 10° N
Cosmos 1980 3.6 22:42:13 10° NNW 22:47:55 86° WSW 22:50:41 32° SSE
Cosmos 372 Rocket 4.0 22:43:06 10° NNW 22:48:15 59° WSW 22:49:16 49° SSW
Cosmos 2333 Rocket 4.0 22:45:12 10° WNW 22:48:05 16° W 22:48:05 16° W
Cosmos 1570 Rocket 4.0 22:48:03 47° S 22:49:34 78° ESE 22:54:51 10° NNE
Cosmos 1515 4.0 22:50:42 10° N 22:54:27 60° E 22:55:18 46° SE
Cosmos 841 Rocket 4.4 22:53:16 30° W 22:54:51 36° WNW 22:59:39 10° N
Cosmos 1459 Rocket 4.4 22:52:13 10° NNW 22:57:52 43° W 22:59:36 35° SW
CZ-2D R/B 2.1 22:56:16 10° N 23:01:30 74° WNW 23:03:21 41° SSW
Cosmos 2227 Rocket 2.1 23:00:37 40° SSW 23:02:46 89° WNW 23:08:29 10° NNE
Cosmos 2208 Rocket 4.1 23:00:52 40° S 23:02:54 81° ESE 23:08:19 10° NNE
ISS -0.8 23:02:25 10° NW 23:04:39 16° N 23:06:53 10° NE
SL-16 R/B 3.4 22:59:57 10° NNW 23:05:22 43° ENE 23:10:45 10° SE
Cosmos 1408 Rocket 3.7 23:04:14 40° SSE 23:05:38 65° E 23:09:53 10° NNE
Meteor 1-10 Rocket 4.4 23:01:41 10° NNW 23:07:26 57° W 23:09:38 36° SSW
H-2A R/B 4.5 23:10:16 11° SSE 23:10:16 11° SSE 23:10:55 10° SSE
Thor Agena Rocket 4.4 23:04:40 10° N 23:09:23 37° WNW 23:11:09 28° WSW
BREEZE-M DEB (TANK) 4.3 23:10:00 26° SSE 23:10:00 26° SSE 23:12:37 10° E
SL-16 R/B 2.5 23:07:08 25° S 23:10:59 79° WSW 23:17:16 10° NNW
Cosmos 2263 Rocket 3.9 23:07:41 13° SSE 23:11:25 24° ESE 23:15:48 10° NE
Cosmos 2082 4.3 23:09:28 26° SSE 23:12:17 49° ESE 23:17:41 10° NE
ADEOS II 2.1 23:07:09 10° NNE 23:12:26 78° ESE 23:14:55 32° S
MSX 4.3 23:07:02 10° NNE 23:12:41 54° E 23:16:15 22° S
AQUA 3.7 23:09:53 10° NNE 23:14:40 84° WNW 23:16:29 38° SSW
Cosmos 1356 Rocket 4.0 23:16:44 36° W 23:17:20 38° WNW 23:21:05 10° N
Helios 1A 3.8 23:14:05 15° SE 23:17:23 48° ENE 23:21:24 10° N
Meteor 1-28 Rocket 3.2 23:18:30 35° SSE 23:19:56 77° ENE 23:23:39 10° N
Cosmos 1666 3.4 23:23:15 27° SSE 23:24:54 47° E 23:28:30 10° NNE
UNK 3.7 23:23:04 33° S 23:25:02 64° WSW 23:29:41 10° NNW
Cosmos 2233 Rocket 3.9 23:19:30 10° NNW 23:25:37 68° W 23:29:21 25° S
Okean 3 Rocket 4.3 23:24:43 32° WSW 23:26:00 40° WNW 23:30:17 10° N
Cosmos 1400 Rocket 2.7 23:25:02 43° SSW 23:26:13 74° W 23:30:16 10° N
CENTAUR R/B 4.1 23:22:31 10° W 23:27:40 28° NW 23:33:46 10° NNE
Cosmos 1725 Rocket 4.5 23:22:35 10° NNW 23:28:19 42° W 23:31:01 27° SW
Cosmos 2237 Rocket 2.6 23:23:55 10° NW 23:29:11 42° WSW 23:31:24 29° SSW
Lacrosse 4 Rocket 2.0 23:25:47 10° NNW 23:29:47 56° ENE 23:33:49 10° SE
ATLAS CENTAUR R/B 2.9 23:28:43 20° SSE 23:31:10 33° ESE 23:35:31 10° NE
Cosmos 2297 Rocket 3.1 23:29:19 22° WSW 23:32:13 36° WNW 23:37:26 10° N
Cosmos 1315 Rocket 4.3 23:30:11 14° SSE 23:32:59 32° E 23:36:30 10° NNE
Cosmos 1602 3.8 23:33:08 40° SW 23:34:10 56° W 23:37:55 10° N
IDEFIX/ARIANE 42P 2.5 23:30:51 10° N 23:36:03 75° WNW 23:38:55 27° SSW
Cosmos 2219 3.5 23:33:09 28° SW 23:36:03 56° WNW 23:41:36 10° NNE
Cosmos 1500 3.1 23:35:19 40° SSW 23:36:29 65° W 23:40:13 10° N
MOS 1 Rocket 4.1 23:35:13 29° SW 23:37:07 39° W 23:42:08 10° NNW
Cosmos 1500 Rocket 3.5 23:35:20 28° S 23:37:39 88° E 23:42:09 10° N
Meteor 1-25 Rocket 4.3 23:37:11 25° SSW 23:40:40 73° W 23:46:31 10° N
ALOS 4.3 23:38:06 10° NE 23:41:51 23° E 23:45:33 10° SSE
Timation 2 Rocket 4.4 23:39:10 19° S 23:43:44 58° ESE 23:50:11 10° NNE
Cosmos 332 Rocket 4.2 23:43:22 10° NNW 23:48:16 67° ENE 23:53:08 10° SSE
SL-24 R/B - RUBIN 2 3.6 23:46:05 27° SW 23:48:37 84° WNW 23:53:07 10° NNE
SL-4 R/B 4.3 23:46:32 10° NW 23:49:40 24° NNE 23:52:59 10° ENE
OPS 6432 4.2 23:46:56 10° NW 23:49:58 86° WSW 23:53:38 10° SSE
IRS-1D 3.5 23:45:56 10° NNE 23:50:55 80° ESE 23:54:34 18° S
